| time (UTC) | temp F | wind direction | speed knots | gust knots | rain 1hr in | rain 24hr in | rain mn in | humidity % | barometer mb |
| 20260506111511 | 21 | 42 | 0.0 | 1.7 | 0.00 | 0.00 | 0.00 | 94 | 1015.2 |
| 20260506110019 | 21 | 111 | 0.0 | 0.0 | 0.00 | 0.00 | 0.00 | 94 | 1015.2 |
| 20260506104504 | 21 | 111 | 0.0 | 0.0 | 0.00 | 0.00 | 0.00 | 94 | 1015.1 |
| 20260506103006 | 21 | 111 | 0.0 | 0.0 | 0.00 | 0.00 | 0.00 | 94 | 1015.1 |
| 20260506101504 | 21 | 90 | 0.0 | 1.7 | 0.00 | 0.00 | 0.00 | 94 | 1015.0 |
| 20260506100005 | 21 | 148 | 0.0 | 4.3 | 0.00 | 0.00 | 0.00 | 94 | 1015.5 |
| 20260506094520 | 21 | 135 | 2.6 | 6.1 | 0.00 | 0.00 | 0.00 | 94 | 1015.2 |
| 20260506093004 | 21 | 159 | 1.7 | 4.3 | 0.00 | 0.00 | 0.00 | 94 | 1015.3 |
| 20260506091512 | 21 | 155 | 2.6 | 4.3 | 0.00 | 0.00 | 0.00 | 94 | 1015.4 |
| 20260506090019 | 21 | 152 | 1.7 | 3.5 | 0.00 | 0.00 | 0.00 | 94 | 1015.3 |
| 20260506084520 | 21 | 142 | 1.7 | 6.1 | 0.00 | 0.00 | 0.00 | 94 | 1015.5 |
| 20260506083004 | 22 | 144 | 1.7 | 5.2 | 0.00 | 0.01 | 0.00 | 94 | 1015.4 |
| 20260506081518 | 22 | 138 | 0.9 | 2.6 | 0.00 | 0.01 | 0.00 | 94 | 1015.4 |
| 20260506073012 | 22 | 34 | 0.0 | 3.5 | 0.00 | 0.04 | 0.00 | 94 | 1015.6 |
| 20260506071507 | 22 | 17 | 1.7 | 7.8 | 0.00 | 0.05 | 0.00 | 94 | 1015.8 |
| 20260506061523 | 23 | 83 | 0.0 | 0.0 | 0.00 | 0.05 | 0.00 | 94 | 1015.3 |
| 20260506044527 | 23 | 103 | 0.0 | 0.0 | 0.00 | 0.05 | 0.05 | 94 | 1015.0 |
| 20260506043010 | 23 | 103 | 0.0 | 0.0 | 0.00 | 0.05 | 0.05 | 94 | 1015.0 |
| 20260506041504 | 23 | 103 | 0.0 | 1.7 | 0.00 | 0.05 | 0.05 | 94 | 1015.0 |
| 20260506040011 | 23 | 78 | 0.0 | 0.0 | 0.00 | 0.05 | 0.05 | 94 | 1014.8 |
| 20260506034505 | 23 | 78 | 0.0 | 0.9 | 0.00 | 0.05 | 0.05 | 94 | 1014.6 |
| 20260506033005 | 23 | 37 | 0.0 | 0.0 | 0.00 | 0.05 | 0.05 | 94 | 1014.6 |
| 20260506031504 | 23 | 27 | 0.0 | 0.9 | 0.00 | 0.05 | 0.05 | 95 | 1014.4 |
| 20260506030004 | 23 | 27 | 0.0 | 2.6 | 0.00 | 0.05 | 0.05 | 94 | 1014.3 |
| 20260506024515 | 23 | 22 | 1.7 | 2.6 | 0.00 | 0.05 | 0.05 | 94 | 1014.2 |
| 20260506023016 | 23 | 24 | 0.0 | 2.6 | 0.00 | 0.05 | 0.05 | 94 | 1013.8 |
| 20260506021503 | 23 | 64 | 0.0 | 0.9 | 0.00 | 0.05 | 0.05 | 94 | 1013.1 |
| 20260506020004 | 24 | 66 | 0.0 | 2.6 | 0.00 | 0.05 | 0.05 | 94 | 1013.1 |
| 20260506014520 | 24 | 50 | 0.0 | 2.6 | 0.00 | 0.06 | 0.05 | 94 | 1013.1 |
| 20260506013004 | 24 | 46 | 0.9 | 4.3 | 0.00 | 0.07 | 0.05 | 93 | 1012.8 |
| 20260506011530 | 24 | 74 | 0.0 | 2.6 | 0.00 | 0.07 | 0.05 | 94 | 1012.5 |
| 20260506010010 | 24 | 22 | 0.0 | 0.0 | 0.00 | 0.10 | 0.05 | 94 | 1012.4 |
| 20260506004515 | 24 | 35 | 1.7 | 3.5 | 0.00 | 0.12 | 0.05 | 94 | 1012.5 |
| 20260506003004 | 24 | 38 | 0.9 | 4.3 | 0.00 | 0.13 | 0.05 | 94 | 1012.7 |
| 20260506001522 | 24 | 26 | 1.7 | 6.1 | 0.00 | 0.17 | 0.05 | 94 | 1012.5 |
| 20260506000008 | 24 | 24 | 1.7 | 3.5 | 0.00 | 0.24 | 0.05 | 94 | 1012.2 |
| 20260505234514 | 24 | 21 | 0.0 | 2.6 | 0.00 | 0.30 | 0.05 | 93 | 1012.1 |
| 20260505233004 | 24 | 21 | 0.0 | 2.6 | 0.00 | 0.30 | 0.05 | 93 | 1011.9 |
| 20260505231504 | 24 | 26 | 1.7 | 3.5 | 0.00 | 0.30 | 0.05 | 94 | 1012.1 |
| 20260505230024 | 24 | 53 | 0.0 | 2.6 | 0.00 | 0.30 | 0.05 | 94 | 1012.4 |
| 20260505224508 | 23 | 42 | 3.5 | 8.7 | 0.00 | 0.30 | 0.05 | 94 | 1012.2 |
| 20260505223020 | 23 | 34 | 6.1 | 12.2 | 0.00 | 0.30 | 0.05 | 94 | 1012.3 |
| 20260505221503 | 24 | 19 | 6.1 | 9.6 | 0.00 | 0.31 | 0.05 | 93 | 1011.9 |
| 20260505220003 | 25 | 13 | 5.2 | 8.7 | 0.00 | 0.31 | 0.05 | 93 | 1011.9 |
| 20260505214508 | 25 | 23 | 4.3 | 11.3 | 0.00 | 0.31 | 0.05 | 92 | 1011.7 |
| 20260505213013 | 27 | 22 | 5.2 | 8.7 | 0.00 | 0.31 | 0.05 | 90 | 1011.9 |
| 20260505211505 | 29 | 138 | 0.0 | 2.6 | 0.00 | 0.31 | 0.05 | 93 | 1011.8 |
| 20260505210004 | 28 | 121 | 0.9 | 6.1 | 0.00 | 0.31 | 0.05 | 93 | 1011.9 |
| 20260505204503 | 28 | 112 | 2.6 | 6.1 | 0.00 | 0.31 | 0.05 | 92 | 1012.2 |
| 20260505203003 | 28 | 135 | 1.7 | 7.0 | 0.00 | 0.31 | 0.05 | 93 | 1012.3 |
| 20260505201504 | 28 | 142 | 5.2 | 7.8 | 0.00 | 0.31 | 0.05 | 92 | 1012.3 |
| 20260505200008 | 28 | 135 | 2.6 | 7.0 | 0.00 | 0.32 | 0.05 | 92 | 1012.7 |
| 20260505194508 | 28 | 165 | 1.7 | 6.1 | 0.00 | 0.34 | 0.05 | 92 | 1013.0 |
| 20260505193003 | 28 | 145 | 0.9 | 6.1 | 0.00 | 0.35 | 0.05 | 92 | 1013.1 |
| 20260505191503 | 29 | 126 | 1.7 | 6.1 | 0.00 | 0.36 | 0.05 | 93 | 1013.3 |
| 20260505190005 | 29 | 167 | 1.7 | 5.2 | 0.00 | 0.37 | 0.05 | 93 | 1013.5 |
| 20260505184512 | 29 | 125 | 1.7 | 5.2 | 0.00 | 0.37 | 0.05 | 92 | 1013.4 |
| 20260505183007 | 29 | 114 | 2.6 | 6.1 | 0.00 | 0.37 | 0.05 | 93 | 1013.3 |
| 20260505181504 | 29 | 111 | 1.7 | 7.0 | 0.00 | 0.37 | 0.05 | 94 | 1013.2 |
| 20260505180004 | 28 | 113 | 3.5 | 10.4 | 0.00 | 0.37 | 0.05 | 93 | 1013.2 |
| 20260505174503 | 28 | 143 | 5.2 | 8.7 | 0.00 | 0.37 | 0.05 | 93 | 1013.7 |
| 20260505173008 | 28 | 165 | 2.6 | 6.1 | 0.00 | 0.37 | 0.05 | 93 | 1013.7 |
| 20260505171515 | 28 | 124 | 4.3 | 11.3 | 0.00 | 0.37 | 0.05 | 93 | 1013.6 |
| 20260505170003 | 28 | 123 | 4.3 | 9.6 | 0.00 | 0.37 | 0.05 | 92 | 1013.9 |
| 20260505164508 | 29 | 153 | 2.6 | 7.8 | 0.00 | 0.37 | 0.05 | 94 | 1014.3 |
| 20260505163008 | 28 | 104 | 2.6 | 6.1 | 0.00 | 0.37 | 0.05 | 94 | 1013.9 |
| 20260505161506 | 28 | 93 | 0.0 | 2.6 | 0.00 | 0.37 | 0.05 | 94 | 1014.1 |
| 20260505153009 | 28 | 100 | 3.5 | 7.0 | 0.00 | 0.37 | 0.05 | 94 | 1014.3 |
| 20260505151509 | 28 | 103 | 2.6 | 6.1 | 0.00 | 0.37 | 0.05 | 94 | 1014.2 |
| 20260505124504 | 27 | 51 | 0.0 | 6.1 | 0.00 | 0.37 | 0.05 | 95 | 1013.9 |
| 20260505123006 | 27 | 36 | 1.7 | 4.3 | 0.00 | 0.37 | 0.05 | 95 | 1013.9 |
| 20260505121509 | 28 | 45 | 0.0 | 4.3 | 0.00 | 0.37 | 0.05 | 94 | 1013.7 |
| 20260505120012 | 28 | 52 | 0.0 | 3.5 | 0.00 | 0.37 | 0.05 | 94 | 1013.7 |
| 20260505114505 | 28 | 46 | 0.9 | 5.2 | 0.00 | 0.37 | 0.05 | 95 | 1013.6 |
| 20260505113005 | 29 | 31 | 0.9 | 2.6 | 0.00 | 0.37 | 0.05 | 95 | 1013.7 |